This is the latest recevied weather packets stored in our database for station/object WX6HNX-12. If no packets are shown the sender has not sent any weather packets the latest 10 day(s).
| Time | Temp. | Humidity | Pressure | Rain* | Wind** | Luminosity | Snow |
|---|---|---|---|---|---|---|---|
| 1777705522 | 18.89° C | 54% | 1011.3 hPa | 0 mm | - | - | - |
| 1777705230 | 18.33° C | 56% | 1011.2 hPa | 0 mm | - | - | - |
| 1777704924 | 17.78° C | 54% | 1011.2 hPa | 0 mm | - | - | - |
| 1777704621 | 18.33° C | 52% | 1011.2 hPa | 0 mm | - | - | - |
| 1777704321 | 18.33° C | 51% | 1011.3 hPa | 0 mm | - | - | - |
| 1777704021 | 18.33° C | 50% | 1011.3 hPa | 0 mm | - | - | - |
| 1777703421 | 18.89° C | 47% | 1011.2 hPa | 0 mm | - | - | - |
| 1777703122 | 19.44° C | 44% | 1011.2 hPa | 0 mm | - | - | - |
| 1777702821 | 20° C | 43% | 1011.2 hPa | 0 mm | - | - | - |
| 1777702522 | 20.56° C | 42% | 1011.2 hPa | 0 mm | - | - | - |
| 1777702221 | 21.11° C | 43% | 1011.2 hPa | 0 mm | - | - | - |
| 1777701922 | 21.11° C | 43% | 1011.2 hPa | 0 mm | - | - | - |
| 1777701621 | 21.11° C | 42% | 1011.2 hPa | 0 mm | - | - | - |
| 1777701322 | 21.11° C | 41% | 1011.2 hPa | 0 mm | - | - | - |
| 1777701022 | 20.56° C | 42% | 1011.2 hPa | 0 mm | - | - | - |
| 1777700722 | 19.44° C | 44% | 1011.2 hPa | 0 mm | - | - | - |
| 1777700422 | 19.44° C | 44% | 1011.2 hPa | 0 mm | - | - | - |
| 1777700122 | 18.89° C | 45% | 1011.3 hPa | 0 mm | - | - | - |
| 1777699521 | 19.44° C | 43% | 1011.3 hPa | 0 mm | - | - | - |
| 1777698756 | 20° C | 41% | 1011.3 hPa | 0 mm | - | - | - |
| 1777698453 | 20.56° C | 40% | 1011.3 hPa | 0 mm | - | - | - |
| 1777698154 | 20.56° C | 41% | 1011.3 hPa | 0 mm | - | - | - |
| 1777697855 | 20.56° C | 41% | 1011.3 hPa | 0 mm | - | - | - |
| 1777697554 | 20.56° C | 40% | 1011.3 hPa | 0 mm | - | - | - |
| 1777697253 | 20° C | 41% | 1011.2 hPa | 0 mm | - | - | - |
* Rain latest hour (hover to see other rain measurements)
** Current wind speed in m/s (hover to see current wind gust speed)